EW4694 Weather Reports


time (UTC)temp
C
wind
direction
speed
KPH
gust
KPH
rain 1hr
cm
rain 24hr
cm
rain mn
cm
humidity
%
barometer
mb
20260503230034 15 281 0.0 0.0 0.00 0.00 0.00 36 1016.4
20260503224527 15 279 0.0 0.0 0.00 0.00 0.00 37 1016.4
20260503223023 15 302 0.0 0.0 0.00 0.00 0.00 37 1016.4
20260503221518 15 259 0.0 0.0 0.00 0.00 0.00 37 1016.6
20260503220013 15 282 0.0 0.0 0.00 0.00 0.00 38 1016.5
20260503214508 15 269 0.0 0.0 0.00 0.00 0.00 36 1016.4
20260503213003 15 279 0.0 0.0 0.00 0.00 0.00 39 1016.5
20260503211559 15 278 0.0 0.0 0.00 0.00 0.00 38 1016.6
20260503210039 15 251 0.0 0.0 0.00 0.00 0.00 34 1016.7
20260503204539 15 294 0.0 0.0 0.00 0.00 0.00 39 1016.8
20260503203015 15 261 0.0 0.0 0.00 0.00 0.00 36 1017.1
20260503201509 15 249 0.0 0.0 0.00 0.00 0.00 39 1017.2
20260503200051 14 314 0.0 0.0 0.00 0.00 0.00 39 1017.4
20260503194543 14 283 0.0 0.0 0.00 0.00 0.00 39 1018.0
20260503193036 14 269 0.0 0.0 0.00 0.00 0.00 38 1018.0
20260503191517 14 269 0.0 0.0 0.00 0.00 0.00 38 1018.3
20260503190106 13 241 0.0 1.6 0.00 0.00 0.00 38 1018.5
20260503184557 13 312 0.0 0.0 0.00 0.00 0.00 42 1018.6
20260503183108 13 315 0.0 0.0 0.00 0.00 0.00 45 1018.8
20260503181614 13 305 0.0 0.0 0.00 0.00 0.00 39 1019.0
20260503180044 13 309 0.0 1.6 0.00 0.00 0.00 39 1019.3
20260503174541 13 288 0.0 0.0 0.00 0.00 0.00 43 1019.3
20260503173034 13 298 0.0 1.6 0.00 0.00 0.00 43 1019.4
20260503171529 12 317 0.0 0.0 0.00 0.00 0.00 45 1019.7
20260503081540 0 5 0.0 0.0 0.00 0.00 0.00 16 1019.2
20260503071557 1 5 0.0 0.0 0.00 0.00 0.00 22 1018.7
20260503070109 1 5 0.0 0.0 0.00 0.00 0.00 23 1018.6
20260503054547 2 5 0.0 0.0 0.00 0.00 0.00 40 1018.6
20260503053044 2 5 0.0 0.0 0.00 0.00 0.00 47 1018.5
20260503051528 2 5 0.0 0.0 0.00 0.00 0.00 50 1018.5
20260503050024 2 5 0.0 0.0 0.00 0.00 0.00 50 1018.5
20260503044504 3 5 0.0 0.0 0.00 0.00 0.00 50 1018.5
20260503043001 3 5 0.0 0.0 0.00 0.00 0.00 48 1018.5
20260503041547 3 5 0.0 0.0 0.00 0.00 0.00 53 1018.4
20260503040044 3 9 0.0 0.0 0.00 0.00 0.00 56 1018.3
20260503034541 4 5 0.0 0.0 0.00 0.00 0.00 61 1018.4
20260503033045 4 5 0.0 0.0 0.00 0.00 0.00 63 1018.4
20260503031532 4 9 0.0 0.0 0.00 0.00 0.00 67 1018.4
20260503030028 5 9 0.0 0.0 0.00 0.00 0.00 68 1018.4
20260503024523 5 5 0.0 0.0 0.00 0.00 0.00 68 1018.3
20260503023018 5 5 0.0 0.0 0.00 0.00 0.00 69 1018.4
20260503021559 6 5 0.0 0.0 0.00 0.00 0.00 68 1018.2
20260503020054 6 5 0.0 0.0 0.00 0.00 0.00 66 1018.1
20260503014531 6 360 0.0 0.0 0.00 0.00 0.00 66 1018.0
20260503013036 6 360 0.0 0.0 0.00 0.00 0.00 64 1017.9
20260503011506 7 310 0.0 0.0 0.00 0.00 0.00 63 1017.7
20260503010001 7 300 0.0 0.0 0.00 0.00 0.00 62 1017.5
20260503004541 7 355 0.0 0.0 0.00 0.00 0.00 62 1017.2
20260503003036 8 360 0.0 0.0 0.00 0.00 0.00 60 1017.0
20260503001516 8 338 0.0 0.0 0.00 0.00 0.00 59 1016.9
20260503000014 8 338 0.0 0.0 0.00 0.00 0.00 58 1016.7
20260502234548 8 326 0.0 0.0 0.00 0.00 0.00 55 1016.5
20260502233044 9 315 0.0 0.0 0.00 0.00 0.00 54 1016.3
20260502231523 10 335 0.0 0.0 0.00 0.00 0.00 51 1016.2